Saint Bonnet de Bellac- Haute Vienne - France
Donnes mto: vendredi, 20/07/2012
Date Horaire Temp. E. Hum. E. P.atmo. Pluie Vent Direction Direction Ensoleilleme Solaire P. de rose Temp au vent Rafales
20/07/2012 00:00 14,9 C 74 % 1016,0 hPa 0,0 mm 2,2 km/h (1 Bft) S-SO 202 0 min 0 W/m 10,3 C 14,9 C 4,3 km/h (1 Bft)
20/07/2012 00:10 14,8 C 75 % 1015,9 hPa 0,0 mm 0,7 km/h (0 Bft) S-SO 202 0 min 0 W/m 10,4 C 14,8 C 3,2 km/h (1 Bft)
20/07/2012 00:20 14,6 C 75 % 1015,8 hPa 0,0 mm 0,0 km/h (0 Bft) S-SO 202 0 min 0 W/m 10,2 C 14,6 C 2,9 km/h (1 Bft)
20/07/2012 00:30 14,4 C 76 % 1015,9 hPa 0,0 mm 0,0 km/h (0 Bft) S-SE 157 0 min 0 W/m 10,2 C 14,4 C 0,0 km/h (0 Bft)
20/07/2012 00:40 14,2 C 77 % 1016,0 hPa 0,0 mm 0,0 km/h (0 Bft) S 180 0 min 0 W/m 10,2 C 14,2 C 0,0 km/h (0 Bft)
20/07/2012 00:50 13,9 C 79 % 1016,0 hPa 0,0 mm 1,1 km/h (1 Bft) S-SO 202 0 min 0 W/m 10,3 C 13,9 C 4,3 km/h (1 Bft)
20/07/2012 01:00 13,8 C 79 % 1015,9 hPa 0,0 mm 0,4 km/h (0 Bft) S-SO 202 0 min 0 W/m 10,2 C 13,8 C 2,9 km/h (1 Bft)
20/07/2012 01:10 13,6 C 80 % 1016,0 hPa 0,0 mm 0,0 km/h (0 Bft) S-SO 202 0 min 0 W/m 10,2 C 13,6 C 0,0 km/h (0 Bft)
20/07/2012 01:20 13,3 C 81 % 1015,9 hPa 0,0 mm 1,4 km/h (1 Bft) S-SO 202 0 min 0 W/m 10,1 C 13,3 C 4,3 km/h (1 Bft)
20/07/2012 01:30 13,1 C 81 % 1015,9 hPa 0,0 mm 0,0 km/h (0 Bft) S-SO 202 0 min 0 W/m 9,9 C 13,1 C 0,0 km/h (0 Bft)
20/07/2012 01:40 13,0 C 82 % 1015,8 hPa 0,0 mm 0,7 km/h (0 Bft) SO 225 0 min 0 W/m 10,0 C 13,0 C 4,3 km/h (1 Bft)
20/07/2012 01:50 12,9 C 83 % 1015,8 hPa 0,0 mm 1,4 km/h (1 Bft) SO 225 0 min 0 W/m 10,1 C 12,9 C 3,2 km/h (1 Bft)
20/07/2012 02:00 12,8 C 84 % 1015,8 hPa 0,0 mm 2,9 km/h (1 Bft) SO 225 0 min 0 W/m 10,2 C 12,8 C 3,6 km/h (1 Bft)
20/07/2012 02:10 12,8 C 84 % 1015,8 hPa 0,0 mm 0,0 km/h (0 Bft) S-SO 202 0 min 0 W/m 10,2 C 12,8 C 0,0 km/h (0 Bft)
20/07/2012 02:20 12,7 C 84 % 1015,7 hPa 0,0 mm 0,0 km/h (0 Bft) SO 225 0 min 0 W/m 10,1 C 12,7 C 0,0 km/h (0 Bft)
20/07/2012 02:30 12,6 C 84 % 1015,7 hPa 0,0 mm 0,0 km/h (0 Bft) S 180 0 min 0 W/m 10,0 C 12,6 C 3,2 km/h (1 Bft)
20/07/2012 02:40 12,4 C 85 % 1015,6 hPa 0,0 mm 0,0 km/h (0 Bft) S-SO 202 0 min 0 W/m 9,9 C 12,4 C 0,0 km/h (0 Bft)
20/07/2012 02:50 12,3 C 85 % 1015,7 hPa 0,0 mm 0,0 km/h (0 Bft) SO 225 0 min 0 W/m 9,9 C 12,3 C 0,0 km/h (0 Bft)
20/07/2012 03:02 12,1 C 84 % 1015,6 hPa 0,0 mm 0,0 km/h (0 Bft) S-SO 202 0 min 0 W/m 9,5 C 12,1 C 0,0 km/h (0 Bft)
20/07/2012 03:10 12,0 C 85 % 1015,6 hPa 0,0 mm 0,0 km/h (0 Bft) SO 225 0 min 0 W/m 9,6 C 12,0 C 0,0 km/h (0 Bft)
20/07/2012 03:20 11,8 C 85 % 1015,5 hPa 0,0 mm 0,0 km/h (0 Bft) S-SO 202 0 min 0 W/m 9,4 C 11,8 C 0,0 km/h (0 Bft)
20/07/2012 03:30 11,7 C 86 % 1015,4 hPa 0,0 mm 0,0 km/h (0 Bft) SO 225 0 min 0 W/m 9,4 C 11,7 C 0,0 km/h (0 Bft)
20/07/2012 03:40 11,5 C 86 % 1015,4 hPa 0,0 mm 0,0 km/h (0 Bft) SO 225 0 min 0 W/m 9,2 C 11,5 C 0,0 km/h (0 Bft)
20/07/2012 03:50 11,4 C 87 % 1015,5 hPa 0,0 mm 0,0 km/h (0 Bft) SO 225 0 min 0 W/m 9,3 C 11,4 C 0,0 km/h (0 Bft)
20/07/2012 04:00 11,3 C 88 % 1015,4 hPa 0,0 mm 0,0 km/h (0 Bft) S-SO 202 0 min 0 W/m 9,4 C 11,3 C 0,0 km/h (0 Bft)
20/07/2012 04:10 11,4 C 88 % 1015,4 hPa 0,0 mm 0,0 km/h (0 Bft) S-SO 202 0 min 0 W/m 9,5 C 11,4 C 0,0 km/h (0 Bft)
20/07/2012 04:20 11,4 C 89 % 1015,4 hPa 0,0 mm 0,0 km/h (0 Bft) SO 225 0 min 0 W/m 9,7 C 11,4 C 0,0 km/h (0 Bft)
20/07/2012 04:30 11,5 C 89 % 1015,3 hPa 0,0 mm 0,0 km/h (0 Bft) S-SO 202 0 min 0 W/m 9,8 C 11,5 C 0,0 km/h (0 Bft)
20/07/2012 04:40 11,6 C 89 % 1015,3 hPa 0,0 mm 0,0 km/h (0 Bft) SO 225 0 min 0 W/m 9,8 C 11,6 C 0,0 km/h (0 Bft)
20/07/2012 04:50 11,6 C 89 % 1015,4 hPa 0,0 mm 0,0 km/h (0 Bft) SO 225 0 min 0 W/m 9,8 C 11,6 C 0,0 km/h (0 Bft)
20/07/2012 05:00 11,6 C 89 % 1015,3 hPa 0,0 mm 0,4 km/h (0 Bft) S-SO 202 0 min 0 W/m 9,8 C 11,6 C 0,4 km/h (0 Bft)
20/07/2012 05:10 11,6 C 90 % 1015,3 hPa 0,0 mm 0,0 km/h (0 Bft) SO 225 0 min 0 W/m 10,0 C 11,6 C 0,0 km/h (0 Bft)
20/07/2012 05:20 11,7 C 90 % 1015,3 hPa 0,0 mm 0,0 km/h (0 Bft) S-SO 202 0 min 0 W/m 10,1 C 11,7 C 0,0 km/h (0 Bft)
20/07/2012 05:30 11,8 C 90 % 1015,2 hPa 0,0 mm 0,0 km/h (0 Bft) SO 225 0 min 0 W/m 10,2 C 11,8 C 0,0 km/h (0 Bft)
20/07/2012 05:40 11,8 C 90 % 1015,2 hPa 0,0 mm 0,0 km/h (0 Bft) SO 225 0 min 0 W/m 10,2 C 11,8 C 0,0 km/h (0 Bft)
20/07/2012 05:50 11,8 C 90 % 1015,1 hPa 0,0 mm 0,0 km/h (0 Bft) SO 225 0 min 0 W/m 10,2 C 11,8 C 0,0 km/h (0 Bft)
20/07/2012 06:00 11,9 C 90 % 1015,1 hPa 0,0 mm 0,0 km/h (0 Bft) S-SO 202 0 min 0 W/m 10,3 C 11,9 C 0,0 km/h (0 Bft)
20/07/2012 06:10 11,9 C 90 % 1015,1 hPa 0,0 mm 0,0 km/h (0 Bft) SO 225 0 min 0 W/m 10,3 C 11,9 C 0,0 km/h (0 Bft)
20/07/2012 06:20 11,9 C 90 % 1015,3 hPa 0,0 mm 0,0 km/h (0 Bft) SO 225 0 min 0 W/m 10,3 C 11,9 C 0,0 km/h (0 Bft)
20/07/2012 06:30 12,0 C 90 % 1015,3 hPa 0,0 mm 0,0 km/h (0 Bft) SO 225 0 min 0 W/m 10,4 C 12,0 C 0,0 km/h (0 Bft)
20/07/2012 06:40 12,0 C 90 % 1015,3 hPa 0,0 mm 0,0 km/h (0 Bft) O-SO 247 0 min 0 W/m 10,4 C 12,0 C 0,0 km/h (0 Bft)
20/07/2012 06:50 12,1 C 90 % 1015,0 hPa 0,0 mm 0,0 km/h (0 Bft) SO 225 0 min 0 W/m 10,5 C 12,1 C 0,0 km/h (0 Bft)
20/07/2012 07:00 12,1 C 90 % 1015,0 hPa 0,0 mm 0,0 km/h (0 Bft) O-SO 247 0 min 0 W/m 10,5 C 12,1 C 0,0 km/h (0 Bft)
20/07/2012 07:10 12,2 C 90 % 1014,9 hPa 0,0 mm 0,0 km/h (0 Bft) O-SO 247 0 min 0 W/m 10,6 C 12,2 C 0,0 km/h (0 Bft)
20/07/2012 07:20 12,3 C 89 % 1015,1 hPa 0,0 mm 0,0 km/h (0 Bft) O-SO 247 0 min 0 W/m 10,5 C 12,3 C 0,0 km/h (0 Bft)
20/07/2012 07:30 12,3 C 89 % 1015,0 hPa 0,0 mm 0,0 km/h (0 Bft) O-SO 247 0 min 0 W/m 10,5 C 12,3 C 0,0 km/h (0 Bft)
20/07/2012 07:40 12,5 C 90 % 1015,0 hPa 0,0 mm 0,0 km/h (0 Bft) S 180 0 min 0 W/m 10,9 C 12,5 C 0,0 km/h (0 Bft)
20/07/2012 07:50 12,6 C 90 % 1015,1 hPa 0,0 mm 0,0 km/h (0 Bft) SO 225 0 min 0 W/m 11,0 C 12,6 C 0,0 km/h (0 Bft)
20/07/2012 08:00 12,8 C 90 % 1015,2 hPa 0,0 mm 0,0 km/h (0 Bft) O-SO 247 0 min 0 W/m 11,2 C 12,8 C 0,0 km/h (0 Bft)
20/07/2012 08:10 12,9 C 89 % 1015,5 hPa 0,0 mm 0,0 km/h (0 Bft) SO 225 0 min 0 W/m 11,1 C 12,9 C 0,0 km/h (0 Bft)
20/07/2012 08:20 13,1 C 90 % 1015,5 hPa 0,0 mm 0,0 km/h (0 Bft) S-SO 202 0 min 0 W/m 11,5 C 13,1 C 0,0 km/h (0 Bft)
20/07/2012 08:30 13,3 C 89 % 1015,5 hPa 0,0 mm 0,0 km/h (0 Bft) O-SO 247 0 min 0 W/m 11,5 C 13,3 C 0,0 km/h (0 Bft)
20/07/2012 08:40 13,4 C 89 % 1015,6 hPa 0,0 mm 0,0 km/h (0 Bft) O-SO 247 0 min 0 W/m 11,6 C 13,4 C 2,9 km/h (1 Bft)
20/07/2012 08:50 13,6 C 89 % 1015,7 hPa 0,0 mm 0,0 km/h (0 Bft) SO 225 0 min 0 W/m 11,8 C 13,6 C 0,0 km/h (0 Bft)
20/07/2012 09:00 13,9 C 88 % 1015,6 hPa 0,0 mm 0,0 km/h (0 Bft) O 270 0 min 0 W/m 11,9 C 13,9 C 0,0 km/h (0 Bft)
20/07/2012 09:10 14,2 C 88 % 1015,6 hPa 0,0 mm 0,4 km/h (0 Bft) O-NO 292 0 min 0 W/m 12,2 C 14,2 C 0,4 km/h (0 Bft)
20/07/2012 09:20 14,4 C 88 % 1015,9 hPa 0,0 mm 0,4 km/h (0 Bft) O-SO 247 0 min 0 W/m 12,4 C 14,4 C 4,0 km/h (1 Bft)
20/07/2012 09:30 14,6 C 87 % 1015,9 hPa 0,0 mm 0,0 km/h (0 Bft) O-SO 247 0 min 0 W/m 12,5 C 14,6 C 0,0 km/h (0 Bft)
20/07/2012 09:40 14,6 C 87 % 1016,0 hPa 0,0 mm 0,0 km/h (0 Bft) O-NO 292 0 min 0 W/m 12,5 C 14,6 C 0,0 km/h (0 Bft)
20/07/2012 09:50 14,8 C 87 % 1015,9 hPa 0,0 mm 1,8 km/h (1 Bft) NO 315 0 min 0 W/m 12,7 C 14,8 C 3,6 km/h (1 Bft)
20/07/2012 10:00 15,1 C 87 % 1016,1 hPa 0,0 mm 0,0 km/h (0 Bft) NO 315 0 min 0 W/m 13,0 C 15,1 C 0,0 km/h (0 Bft)
20/07/2012 10:10 15,2 C 86 % 1016,2 hPa 0,0 mm 0,0 km/h (0 Bft) O-SO 247 0 min 0 W/m 12,9 C 15,2 C 0,0 km/h (0 Bft)
20/07/2012 10:20 15,3 C 86 % 1016,3 hPa 0,0 mm 0,0 km/h (0 Bft) O 270 0 min 0 W/m 13,0 C 15,3 C 2,9 km/h (1 Bft)
20/07/2012 10:30 15,4 C 86 % 1016,4 hPa 0,0 mm 0,0 km/h (0 Bft) O 270 0 min 0 W/m 13,1 C 15,4 C 0,0 km/h (0 Bft)
20/07/2012 10:40 15,6 C 85 % 1016,3 hPa 0,0 mm 0,0 km/h (0 Bft) O-NO 292 0 min 0 W/m 13,1 C 15,6 C 0,0 km/h (0 Bft)
20/07/2012 10:50 15,8 C 85 % 1016,4 hPa 0,0 mm 0,0 km/h (0 Bft) SO 225 0 min 0 W/m 13,3 C 15,8 C 0,0 km/h (0 Bft)
20/07/2012 11:00 15,9 C 85 % 1016,4 hPa 0,0 mm 0,4 km/h (0 Bft) O-NO 292 0 min 0 W/m 13,4 C 15,9 C 0,4 km/h (0 Bft)
20/07/2012 11:10 16,4 C 84 % 1016,6 hPa 0,0 mm 1,8 km/h (1 Bft) O 270 0 min 0 W/m 13,7 C 16,4 C 3,6 km/h (1 Bft)
20/07/2012 11:20 16,8 C 84 % 1016,6 hPa 0,0 mm 1,4 km/h (1 Bft) N-NO 337 0 min 0 W/m 14,1 C 16,8 C 1,4 km/h (1 Bft)
20/07/2012 11:30 17,1 C 82 % 1016,6 hPa 0,0 mm 0,4 km/h (0 Bft) NO 315 0 min 0 W/m 14,0 C 17,1 C 3,6 km/h (1 Bft)
20/07/2012 11:40 17,1 C 81 % 1016,7 hPa 0,0 mm 4,0 km/h (1 Bft) N-NO 337 0 min 0 W/m 13,8 C 17,1 C 7,9 km/h (2 Bft)
20/07/2012 11:50 17,1 C 80 % 1016,8 hPa 0,0 mm 6,8 km/h (2 Bft) NO 315 0 min 0 W/m 13,6 C 17,1 C 6,8 km/h (2 Bft)
20/07/2012 12:00 17,1 C 81 % 1017,0 hPa 0,0 mm 0,7 km/h (0 Bft) N-NO 337 0 min 0 W/m 13,8 C 17,1 C 3,2 km/h (1 Bft)
20/07/2012 12:10 17,2 C 81 % 1016,9 hPa 0,0 mm 0,0 km/h (0 Bft) O-NO 292 0 min 0 W/m 13,9 C 17,2 C 0,0 km/h (0 Bft)
20/07/2012 12:20 17,2 C 80 % 1016,9 hPa 0,0 mm 1,1 km/h (1 Bft) N-NO 337 0 min 0 W/m 13,7 C 17,2 C 3,2 km/h (1 Bft)
20/07/2012 12:30 17,2 C 80 % 1016,8 hPa 0,1 mm 0,0 km/h (0 Bft) N-NO 337 0 min 0 W/m 13,7 C 17,2 C 0,0 km/h (0 Bft)
20/07/2012 12:40 17,2 C 81 % 1016,9 hPa 0,0 mm 0,0 km/h (0 Bft) NE 45 0 min 0 W/m 13,9 C 17,2 C 0,0 km/h (0 Bft)
20/07/2012 12:50 17,2 C 81 % 1017,0 hPa 0,0 mm 0,0 km/h (0 Bft) NE 45 0 min 0 W/m 13,9 C 17,2 C 0,0 km/h (0 Bft)
20/07/2012 13:00 17,1 C 82 % 1016,9 hPa 0,1 mm 0,0 km/h (0 Bft) NE 45 0 min 0 W/m 14,0 C 17,1 C 0,0 km/h (0 Bft)
20/07/2012 13:10 17,1 C 82 % 1016,9 hPa 0,1 mm 0,4 km/h (0 Bft) NE 45 0 min 0 W/m 14,0 C 17,1 C 2,9 km/h (1 Bft)
20/07/2012 13:20 17,0 C 82 % 1017,0 hPa 0,1 mm 0,0 km/h (0 Bft) N-NE 22 0 min 0 W/m 13,9 C 17,0 C 0,0 km/h (0 Bft)
20/07/2012 13:30 16,9 C 82 % 1017,1 hPa 0,0 mm 0,0 km/h (0 Bft) N-NE 22 0 min 0 W/m 13,8 C 16,9 C 0,0 km/h (0 Bft)
20/07/2012 13:40 17,2 C 82 % 1017,0 hPa 0,0 mm 0,0 km/h (0 Bft) N-NE 22 0 min 0 W/m 14,1 C 17,2 C 0,0 km/h (0 Bft)
20/07/2012 13:50 17,6 C 82 % 1017,0 hPa 0,0 mm 0,0 km/h (0 Bft) E-NE 67 0 min 0 W/m 14,5 C 17,6 C 0,0 km/h (0 Bft)
20/07/2012 14:00 17,8 C 81 % 1017,1 hPa 0,0 mm 0,4 km/h (0 Bft) E 90 0 min 0 W/m 14,5 C 17,8 C 0,4 km/h (0 Bft)
20/07/2012 14:10 18,3 C 80 % 1017,2 hPa 0,0 mm 0,7 km/h (0 Bft) NE 45 0 min 0 W/m 14,8 C 18,3 C 4,0 km/h (1 Bft)
20/07/2012 14:20 18,9 C 79 % 1017,1 hPa 0,0 mm 2,9 km/h (1 Bft) N-NE 22 0 min 0 W/m 15,2 C 18,9 C 4,3 km/h (1 Bft)
20/07/2012 14:30 19,4 C 76 % 1017,2 hPa 0,0 mm 1,4 km/h (1 Bft) S-SO 202 0 min 0 W/m 15,1 C 19,4 C 3,2 km/h (1 Bft)
20/07/2012 14:40 19,6 C 76 % 1017,2 hPa 0,0 mm 0,4 km/h (0 Bft) N-NE 22 0 min 0 W/m 15,2 C 19,6 C 0,4 km/h (0 Bft)
20/07/2012 14:50 20,3 C 72 % 1017,4 hPa 0,0 mm 1,1 km/h (1 Bft) NE 45 0 min 0 W/m 15,1 C 20,3 C 4,0 km/h (1 Bft)
20/07/2012 15:00 20,6 C 70 % 1017,2 hPa 0,0 mm 0,0 km/h (0 Bft) NE 45 0 min 0 W/m 14,9 C 20,6 C 0,0 km/h (0 Bft)
20/07/2012 15:10 20,6 C 70 % 1017,1 hPa 0,0 mm 2,2 km/h (1 Bft) NE 45 0 min 0 W/m 14,9 C 20,6 C 4,0 km/h (1 Bft)
20/07/2012 15:20 20,3 C 68 % 1017,3 hPa 0,0 mm 0,0 km/h (0 Bft) SE 135 0 min 0 W/m 14,2 C 20,3 C 3,2 km/h (1 Bft)
20/07/2012 15:30 20,1 C 70 % 1017,3 hPa 0,0 mm 0,0 km/h (0 Bft) SE 135 0 min 0 W/m 14,5 C 20,1 C 0,0 km/h (0 Bft)
20/07/2012 15:40 19,8 C 71 % 1017,3 hPa 0,0 mm 0,4 km/h (0 Bft) NO 315 0 min 0 W/m 14,4 C 19,8 C 3,2 km/h (1 Bft)
20/07/2012 15:50 19,3 C 72 % 1017,4 hPa 0,0 mm 0,0 km/h (0 Bft) O-NO 292 0 min 0 W/m 14,1 C 19,3 C 0,0 km/h (0 Bft)
20/07/2012 16:00 18,9 C 74 % 1017,5 hPa 0,0 mm 0,0 km/h (0 Bft) O-NO 292 0 min 0 W/m 14,2 C 18,9 C 0,0 km/h (0 Bft)
20/07/2012 16:10 18,7 C 74 % 1017,6 hPa 0,0 mm 0,0 km/h (0 Bft) O-NO 292 0 min 0 W/m 14,0 C 18,7 C 0,0 km/h (0 Bft)
20/07/2012 16:20 18,1 C 76 % 1018,0 hPa 0,5 mm 4,0 km/h (1 Bft) N 360 0 min 0 W/m 13,8 C 18,1 C 7,2 km/h (2 Bft)
20/07/2012 16:30 17,3 C 78 % 1018,0 hPa 0,1 mm 1,1 km/h (1 Bft) N 360 0 min 0 W/m 13,4 C 17,3 C 1,1 km/h (1 Bft)
20/07/2012 16:40 16,8 C 81 % 1018,0 hPa 0,0 mm 0,0 km/h (0 Bft) N 360 0 min 0 W/m 13,5 C 16,8 C 0,0 km/h (0 Bft)
20/07/2012 16:50 16,6 C 82 % 1018,0 hPa 0,0 mm 1,1 km/h (1 Bft) N-NE 22 0 min 0 W/m 13,5 C 16,6 C 3,6 km/h (1 Bft)
20/07/2012 17:00 16,6 C 83 % 1018,0 hPa 0,0 mm 1,1 km/h (1 Bft) N 360 0 min 0 W/m 13,7 C 16,6 C 4,0 km/h (1 Bft)
20/07/2012 17:10 16,6 C 84 % 1018,1 hPa 0,0 mm 0,4 km/h (0 Bft) N-NE 22 0 min 0 W/m 13,9 C 16,6 C 4,0 km/h (1 Bft)
20/07/2012 17:20 16,8 C 84 % 1018,0 hPa 0,0 mm 0,4 km/h (0 Bft) NE 45 0 min 0 W/m 14,1 C 16,8 C 2,9 km/h (1 Bft)
20/07/2012 17:30 16,8 C 83 % 1017,9 hPa 0,0 mm 0,0 km/h (0 Bft) NE 45 0 min 0 W/m 13,9 C 16,8 C 0,0 km/h (0 Bft)
20/07/2012 17:40 16,9 C 83 % 1017,9 hPa 0,0 mm 0,0 km/h (0 Bft) NE 45 0 min 0 W/m 14,0 C 16,9 C 2,9 km/h (1 Bft)
20/07/2012 17:50 17,2 C 83 % 1018,0 hPa 0,0 mm 0,0 km/h (0 Bft) E-NE 67 0 min 0 W/m 14,3 C 17,2 C 2,9 km/h (1 Bft)
20/07/2012 18:00 17,5 C 82 % 1018,0 hPa 0,0 mm 0,7 km/h (0 Bft) N-NE 22 0 min 0 W/m 14,4 C 17,5 C 0,7 km/h (0 Bft)
20/07/2012 18:10 17,9 C 80 % 1018,0 hPa 0,0 mm 0,0 km/h (0 Bft) N-NE 22 0 min 0 W/m 14,4 C 17,9 C 0,0 km/h (0 Bft)
20/07/2012 18:20 18,4 C 79 % 1017,9 hPa 0,0 mm 0,0 km/h (0 Bft) N-NE 22 0 min 0 W/m 14,7 C 18,4 C 0,0 km/h (0 Bft)
20/07/2012 18:30 18,8 C 77 % 1018,0 hPa 0,0 mm 0,0 km/h (0 Bft) NE 45 0 min 0 W/m 14,7 C 18,8 C 0,0 km/h (0 Bft)
20/07/2012 18:40 19,1 C 76 % 1017,9 hPa 0,0 mm 0,0 km/h (0 Bft) N-NE 22 0 min 0 W/m 14,8 C 19,1 C 0,0 km/h (0 Bft)
20/07/2012 18:50 19,1 C 74 % 1017,9 hPa 0,0 mm 0,0 km/h (0 Bft) N-NE 22 0 min 0 W/m 14,4 C 19,1 C 0,0 km/h (0 Bft)
20/07/2012 19:00 18,9 C 74 % 1018,0 hPa 0,0 mm 0,7 km/h (0 Bft) N-NE 22 0 min 0 W/m 14,2 C 18,9 C 3,2 km/h (1 Bft)
20/07/2012 19:10 18,8 C 74 % 1018,1 hPa 0,0 mm 0,0 km/h (0 Bft) N-NE 22 0 min 0 W/m 14,1 C 18,8 C 0,0 km/h (0 Bft)
20/07/2012 19:20 18,7 C 74 % 1018,1 hPa 0,0 mm 0,0 km/h (0 Bft) N-NE 22 0 min 0 W/m 14,0 C 18,7 C 0,0 km/h (0 Bft)
20/07/2012 19:30 18,5 C 75 % 1018,1 hPa 0,0 mm 0,0 km/h (0 Bft) N-NE 22 0 min 0 W/m 14,0 C 18,5 C 0,0 km/h (0 Bft)
20/07/2012 19:40 18,3 C 75 % 1018,2 hPa 0,0 mm 0,0 km/h (0 Bft) N-NE 22 0 min 0 W/m 13,8 C 18,3 C 0,0 km/h (0 Bft)
20/07/2012 19:50 18,0 C 76 % 1018,3 hPa 0,0 mm 0,0 km/h (0 Bft) NE 45 0 min 0 W/m 13,7 C 18,0 C 0,0 km/h (0 Bft)
20/07/2012 20:00 17,8 C 77 % 1018,3 hPa 0,0 mm 0,0 km/h (0 Bft) NE 45 0 min 0 W/m 13,7 C 17,8 C 0,0 km/h (0 Bft)
20/07/2012 20:10 17,7 C 77 % 1018,3 hPa 0,0 mm 0,0 km/h (0 Bft) NE 45 0 min 0 W/m 13,6 C 17,7 C 0,0 km/h (0 Bft)
20/07/2012 20:20 17,5 C 77 % 1018,4 hPa 0,0 mm 0,0 km/h (0 Bft) NE 45 0 min 0 W/m 13,4 C 17,5 C 0,0 km/h (0 Bft)
20/07/2012 20:30 17,3 C 78 % 1018,5 hPa 0,0 mm 0,0 km/h (0 Bft) NE 45 0 min 0 W/m 13,4 C 17,3 C 0,0 km/h (0 Bft)
20/07/2012 20:40 17,1 C 80 % 1018,5 hPa 0,0 mm 0,0 km/h (0 Bft) E 90 0 min 0 W/m 13,6 C 17,1 C 0,0 km/h (0 Bft)
20/07/2012 20:50 16,8 C 81 % 1018,6 hPa 0,0 mm 0,0 km/h (0 Bft) E 90 0 min 0 W/m 13,5 C 16,8 C 0,0 km/h (0 Bft)
20/07/2012 21:00 16,6 C 82 % 1018,7 hPa 0,0 mm 0,0 km/h (0 Bft) E 90 0 min 0 W/m 13,5 C 16,6 C 0,0 km/h (0 Bft)
20/07/2012 21:10 16,5 C 82 % 1018,8 hPa 0,0 mm 0,0 km/h (0 Bft) E 90 0 min 0 W/m 13,4 C 16,5 C 0,0 km/h (0 Bft)
20/07/2012 21:20 16,4 C 83 % 1018,9 hPa 0,0 mm 0,0 km/h (0 Bft) E 90 0 min 0 W/m 13,5 C 16,4 C 0,0 km/h (0 Bft)
20/07/2012 21:30 16,3 C 83 % 1018,9 hPa 0,0 mm 0,0 km/h (0 Bft) E 90 0 min 0 W/m 13,4 C 16,3 C 0,0 km/h (0 Bft)
20/07/2012 21:40 16,1 C 84 % 1019,0 hPa 0,0 mm 0,0 km/h (0 Bft) E 90 0 min 0 W/m 13,4 C 16,1 C 0,0 km/h (0 Bft)
20/07/2012 21:50 15,9 C 84 % 1019,0 hPa 0,0 mm 0,0 km/h (0 Bft) E 90 0 min 0 W/m 13,2 C 15,9 C 0,0 km/h (0 Bft)
20/07/2012 22:00 15,7 C 84 % 1019,1 hPa 0,0 mm 0,0 km/h (0 Bft) E 90 0 min 0 W/m 13,0 C 15,7 C 0,0 km/h (0 Bft)
20/07/2012 22:10 15,4 C 84 % 1019,1 hPa 0,0 mm 0,0 km/h (0 Bft) E 90 0 min 0 W/m 12,7 C 15,4 C 0,0 km/h (0 Bft)
20/07/2012 22:20 15,2 C 84 % 1019,3 hPa 0,0 mm 0,0 km/h (0 Bft) E 90 0 min 0 W/m 12,5 C 15,2 C 0,0 km/h (0 Bft)
20/07/2012 22:30 14,9 C 85 % 1019,3 hPa 0,0 mm 0,0 km/h (0 Bft) N 360 0 min 0 W/m 12,4 C 14,9 C 0,0 km/h (0 Bft)
20/07/2012 22:40 14,8 C 86 % 1019,4 hPa 0,0 mm 0,0 km/h (0 Bft) E 90 0 min 0 W/m 12,5 C 14,8 C 0,0 km/h (0 Bft)
20/07/2012 22:50 14,6 C 86 % 1019,6 hPa 0,0 mm 0,0 km/h (0 Bft) E 90 0 min 0 W/m 12,3 C 14,6 C 0,0 km/h (0 Bft)
20/07/2012 23:00 14,4 C 86 % 1019,7 hPa 0,0 mm 0,0 km/h (0 Bft) E 90 0 min 0 W/m 12,1 C 14,4 C 0,0 km/h (0 Bft)
20/07/2012 23:10 14,4 C 86 % 1019,7 hPa 0,0 mm 0,0 km/h (0 Bft) E 90 0 min 0 W/m 12,1 C 14,4 C 0,0 km/h (0 Bft)
20/07/2012 23:20 14,3 C 87 % 1019,7 hPa 0,0 mm 0,0 km/h (0 Bft) E 90 0 min 0 W/m 12,2 C 14,3 C 0,0 km/h (0 Bft)
20/07/2012 23:30 14,2 C 87 % 1019,8 hPa 0,0 mm 0,0 km/h (0 Bft) E 90 0 min 0 W/m 12,1 C 14,2 C 0,0 km/h (0 Bft)
20/07/2012 23:40 14,1 C 87 % 1019,8 hPa 0,0 mm 0,0 km/h (0 Bft) E 90 0 min 0 W/m 12,0 C 14,1 C 0,0 km/h (0 Bft)
20/07/2012 23:50 13,9 C 87 % 1019,7 hPa 0,0 mm 0,0 km/h (0 Bft) E 90 0 min 0 W/m 11,8 C 13,9 C 0,0 km/h (0 Bft)
_ Min-Heure 04:00 15:20 07:10 - 23:50 - - - - 03:40 04:00 23:50
Minimum _ 11,3 C 68 % 1014,9 hPa - 0,0 km/h (0 Bft) - - - - 9,2 C 11,3 C 0,0 km/h (0 Bft)
_ Max-Heure 15:10 08:20 23:40 16:20 11:50 - - 23:50 23:50 14:40 15:10 11:40
Maximum _ 20,6 C 90 % 1019,8 hPa 0,5 mm 6,8 km/h
NO (2 Bft)
- - 0 min 0 W/m 15,2 C 20,6 C 7,9 km/h
N-NO (2 Bft)
Moyenne _ 15,3 C 83 % 1016,9 hPa #1,0 mm 0,3 km/h (0 Bft) SO - #0 min. 0 W/m 12,4 C 15,3 C 1,0 km/h (0 Bft)
Saint Bonnet de Bellac- Haute Vienne - France